SES-14

Last updated on Sun Jun 21 2026 00:03:07 GMT+0000 (Coordinated Universal Time)

1 43175U 18012B 26171.16863694 -.00000283 00000+0 00000+0 0 9994 2 43175 0.0176 27.7377 0001235 43.1327 210.7211 1.00279470 7056
UTC large
Height (km)
Speed (km/s)
/
Latitude / Longitude
Inclination (degrees)
Orbital Period (minutes)
Azimuth
Elevation
Range (km)
Doppler Factor

Next 0 passes for location: London (51.5072 / 0.1276)

No passes found over London.
SES-14